Location: Wald
(31.7579°N, 86.6655°W)
Time: 12:17:59
(UTC+00:00)

Atlas Centaur 2 - Pass Details

Date: 14 July 2020
Orbit: 459 x 1310 km, 30.4° (Epoch: 08 August)

Event Time Altitude Azimuth Distance (km) Brightness Sun altitude
Rises 02:50:13 0° 268° (W) 2,890 5.6 -21.1°
Reaches altitude 10° 02:52:48 10° 252° (WSW) 2,112 4.6 -21.4°
Maximum altitude 02:56:37 22° 202° (SSW) 1,635 3.5 -22.0°
Enters shadow 02:56:42 22° 200° (SSW) 1,639 3.5 -22.0°
